FW1809 Weather Reports


time (UTC)temp
F
wind
direction
speed
knots
gust
knots
rain 1hr
in
rain 24hr
in
rain mn
in
humidity
%
barometer
mb
20260507051517 52 255 0.9 5.2 0.00 0.10 0.00 97 1007.6
20260507050012 52 259 2.6 7.0 0.00 0.10 0.00 97 1007.9
20260507044507 52 279 0.0 2.6 0.00 0.10 0.00 97 1007.8
20260507043010 52 279 0.0 3.5 0.01 0.10 0.00 97 1007.8
20260507041504 53 264 0.0 4.3 0.01 0.10 0.00 97 1007.8
20260507040001 53 263 0.0 3.5 0.02 0.10 0.10 97 1007.8
20260507034557 54 286 0.0 8.7 0.02 0.10 0.10 97 1007.8
20260507033054 56 258 1.7 10.4 0.01 0.09 0.09 97 1007.9
20260507031555 56 256 0.9 7.0 0.01 0.09 0.09 98 1007.7
20260507030053 56 217 0.0 3.5 0.00 0.08 0.08 98 1007.5
20260507024601 56 192 0.9 3.5 0.00 0.08 0.08 98 1007.3
20260507023051 56 184 0.9 5.2 0.00 0.08 0.08 98 1007.5
20260507021551 56 172 0.9 6.1 0.00 0.08 0.08 98 1007.6
20260507020050 56 173 0.9 7.0 0.00 0.08 0.08 98 1007.6
20260507014559 56 197 0.9 5.2 0.00 0.08 0.08 98 1007.5
20260507013051 56 227 1.7 6.1 0.00 0.08 0.08 97 1007.5
20260507011548 56 167 2.6 8.7 0.00 0.08 0.08 97 1007.1
20260507010054 56 162 1.7 6.1 0.00 0.08 0.08 97 1007.1
20260507004552 56 161 1.7 5.2 0.00 0.08 0.08 97 1007.2
20260507003046 56 145 1.7 10.4 0.00 0.08 0.08 97 1007.4
20260507001551 56 173 1.7 7.0 0.00 0.08 0.08 97 1007.3
20260507000047 56 191 1.7 5.2 0.00 0.08 0.08 97 1007.3
20260506234545 56 172 0.9 8.7 0.00 0.08 0.08 97 1007.3
20260506233049 56 130 2.6 10.4 0.00 0.08 0.08 97 1007.2
20260506231543 56 163 1.7 7.8 0.00 0.08 0.08 97 1007.1
20260506230043 56 189 1.7 6.1 0.00 0.08 0.08 96 1007.0
20260506224542 56 138 1.7 4.3 0.00 0.08 0.08 96 1006.9
20260506223041 56 150 2.6 7.8 0.01 0.08 0.08 96 1006.9
20260506221540 56 212 1.7 8.7 0.01 0.08 0.08 96 1007.0
20260506220046 56 137 0.9 7.0 0.02 0.08 0.08 96 1006.9
20260506214549 57 151 0.9 7.0 0.02 0.08 0.08 96 1006.9
20260506213036 57 126 2.6 7.8 0.02 0.07 0.07 96 1006.9
20260506211535 57 163 2.6 7.8 0.02 0.07 0.07 95 1007.1
20260506210035 57 175 0.9 7.8 0.01 0.06 0.06 95 1007.2
20260506204532 57 165 0.0 6.1 0.01 0.06 0.06 95 1007.3
20260506203032 57 128 2.6 7.8 0.00 0.05 0.05 95 1007.5
20260506201533 57 191 4.3 9.6 0.00 0.05 0.05 95 1007.3
20260506200030 57 178 1.7 9.6 0.00 0.05 0.05 95 1007.6
20260506194529 57 209 3.5 13.9 0.01 0.05 0.05 95 1007.7
20260506193027 57 124 1.7 9.6 0.03 0.05 0.05 94 1007.8
20260506191526 57 186 5.2 11.3 0.04 0.05 0.05 93 1008.1
20260506190026 57 169 2.6 8.7 0.04 0.05 0.05 93 1008.0
20260506184523 58 141 0.9 8.7 0.04 0.04 0.04 92 1008.3
20260506183022 58 56 0.9 7.8 0.02 0.02 0.02 91 1008.0
20260506181522 59 78 1.7 10.4 0.01 0.01 0.01 89 1008.4
20260506180018 59 150 1.7 7.0 0.01 0.01 0.01 87 1008.8
20260506174517 60 151 1.7 12.2 0.00 0.00 0.00 85 1009.1
20260506173015 61 163 2.6 12.2 0.00 0.00 0.00 83 1009.2
20260506171519 61 133 4.3 12.2 0.00 0.00 0.00 80 1009.3
20260506170012 62 192 6.1 12.2 0.00 0.00 0.00 80 1009.6
20260506164511 63 188 4.3 17.4 0.00 0.00 0.00 79 1009.6
20260506163011 64 97 2.6 15.6 0.00 0.00 0.00 78 1009.6
20260506161511 64 185 5.2 16.5 0.00 0.00 0.00 78 1009.8
20260506160013 64 115 4.3 14.8 0.00 0.00 0.00 77 1010.0
20260506154508 65 107 2.6 12.2 0.00 0.00 0.00 75 1009.9
20260506153010 66 132 1.7 11.3 0.00 0.00 0.00 74 1009.8
20260506151507 66 194 3.5 12.2 0.00 0.00 0.00 73 1009.8
20260506150005 67 221 4.3 10.4 0.00 0.00 0.00 73 1010.0
20260506144507 67 119 4.3 9.6 0.00 0.00 0.00 74 1010.1
20260506143004 66 169 2.6 11.3 0.00 0.00 0.00 74 1010.1
20260506141559 65 161 2.6 12.2 0.00 0.00 0.00 76 1010.3
20260506140057 64 148 2.6 13.9 0.00 0.00 0.00 77 1010.2
20260506134600 64 144 5.2 14.8 0.00 0.00 0.00 77 1010.2
20260506133059 64 142 4.3 9.6 0.00 0.00 0.00 78 1009.9
20260506131551 63 206 4.3 11.3 0.00 0.00 0.00 80 1010.1
20260506130051 63 245 2.6 10.4 0.00 0.00 0.00 81 1010.3
20260506124547 63 69 3.5 10.4 0.00 0.00 0.00 83 1010.7
20260506123043 60 96 2.6 9.6 0.00 0.00 0.00 87 1010.7
20260506121542 59 198 2.6 12.2 0.00 0.00 0.00 88 1010.8
20260506120043 59 172 3.5 11.3 0.00 0.00 0.00 88 1010.7
20260506114540 58 136 6.1 14.8 0.00 0.00 0.00 89 1010.7
20260506113039 58 163 2.6 11.3 0.00 0.00 0.00 91 1010.8
20260506111537 57 200 4.3 14.8 0.00 0.00 0.00 92 1010.9
20260506110039 57 160 3.5 12.2 0.00 0.00 0.00 92 1010.8
20260506104535 56 116 1.7 8.7 0.00 0.00 0.00 92 1010.8
20260506103034 56 166 4.3 10.4 0.00 0.00 0.00 92 1010.7
20260506101532 56 135 4.3 8.7 0.00 0.00 0.00 92 1010.6
20260506100031 56 153 3.5 10.4 0.00 0.00 0.00 91 1010.6
20260506094529 56 191 1.7 8.7 0.00 0.00 0.00 91 1010.6
20260506093034 56 136 0.0 8.7 0.00 0.00 0.00 90 1010.7
20260506091527 56 180 4.3 10.4 0.00 0.00 0.00 90 1010.8
20260506090026 56 202 5.2 10.4 0.00 0.00 0.00 90 1010.9
20260506084532 56 115 4.3 9.6 0.00 0.00 0.00 89 1010.8
20260506083020 56 209 2.6 13.0 0.00 0.00 0.00 89 1010.8
20260506081518 56 182 3.5 10.4 0.00 0.00 0.00 89 1010.9
20260506073011 57 129 2.6 8.7 0.00 0.00 0.00 87 1010.8
20260506071509 57 136 2.6 14.8 0.00 0.00 0.00 87 1010.9
20260506061501 58 138 5.2 12.2 0.00 0.00 0.00 85 1010.9